Weather History for 08306 - September, 2013

Change the Weather History Date:

Thursday, September 26, 2013

  Actual Average Record
Temperature  
Mean Temperature 70 °F -  
Max Temperature 81 °F 74 °F - ()
Min Temperature 60 °F 56 °F - ()
Cooling Degree Days 6    
Growing Degree Days 20 (Base 50)    
Moisture  
Dew Point 65 °F    
Average Humidity 82    
Maximum Humidity 100    
Minimum Humidity 65    
Precipitation  
Precipitation 0.00 in 0.08 in - ()
Sea Level Pressure  
Sea Level Pressure 30.00 in    
Wind  
Wind Speed 3 mph ()    
Max Wind Speed 15 mph    
Max Gust Speed -    
Visibility 7.6 miles    
Events      
T = Trace of Precipitation, MM = Missing Value Source: Averaged Metar Reports

Daily Weather History Graph

Daily Weather History Graph

Search for Another Location

Airport or City:

Trip Planner

Search our weather history database for the weather conditions in past years. The results will help you decide how hot, cold, wet, or windy it might be!

Date:

Astronomy

Sep. 26, 2013 Rise Set
Actual Time 7:40 AM CEST 7:39 PM CEST
Civil Twilight 7:13 AM CEST 8:06 PM CEST
Nautical Twilight 6:42 AM CEST 8:37 PM CEST
Astronomical Twilight 6:10 AM CEST 9:09 PM CEST
Moon No Moon Rise 2:19 PM CEST
Length of Visible Light 12h 52m
Length of Day
11h 59m
Waning Gibbous, 57% of the Moon is Illuminated
Sep 26
Waning Gibbous
Sep 27
Last Quarter
Oct 5
New
Oct 12
First Quarter
Oct 19
Full

Hourly Weather History & Observations

Time (CEST) Temp. Heat Index Dew Point Humidity Pressure Visibility Wind Dir Wind Speed Gust Speed Precip Events Conditions
12:00 AM 64.4 °F - 62.6 °F 94% 29.98 in - Variable 1.2 mph - N/A   Clear
12:30 AM 64.4 °F - 60.8 °F 88% 29.98 in - Variable 1.2 mph - N/A   Clear
1:00 AM 64.4 °F - 62.6 °F 94% 30.01 in - NNE 1.2 mph - N/A   Clear
1:30 AM 64.4 °F - 62.6 °F 94% 30.01 in - Calm Calm - N/A   Clear
2:00 AM 63 °F - 61 °F 91% 30.01 in 9 mi Calm Calm - -   Clear
2:00 AM 62.6 °F - 60.8 °F 94% 30.01 in - NE 2.3 mph - N/A   Clear
2:30 AM 64.4 °F - 62.6 °F 94% 30.01 in - Variable 1.2 mph - N/A   Clear
3:00 AM 62.6 °F - 60.8 °F 94% 30.01 in - NE 1.2 mph - N/A   Clear
3:30 AM 62.6 °F - 60.8 °F 94% 30.01 in - NE 1.2 mph - N/A   Clear
4:00 AM 62.6 °F - 60.8 °F 94% 30.01 in - NE 2.3 mph - N/A   Clear
4:30 AM 62.6 °F - 60.8 °F 94% 29.98 in - NNE 3.5 mph - N/A   Clear
5:00 AM 62.6 °F - 60.8 °F 94% 29.98 in - NE 2.3 mph - N/A   Clear
5:30 AM 62.6 °F - 60.8 °F 94% 29.98 in - NE 2.3 mph - N/A   Clear
6:00 AM 62.6 °F - 62.6 °F 100% 29.98 in - Variable 1.2 mph - N/A   Clear
6:30 AM 64.4 °F - 62.6 °F 94% 29.98 in - Variable 1.2 mph - N/A   Clear
7:00 AM 62.6 °F - 60.8 °F 94% 30.01 in 6.2 mi Variable 1.2 mph - N/A   Partly Cloudy
7:30 AM 62.6 °F - 60.8 °F 94% 30.01 in 6.2 mi NE 1.2 mph - N/A   Scattered Clouds
8:00 AM 62 °F - 60 °F 93% 30.01 in 7 mi NE 2.3 mph - -   Partly Cloudy
8:00 AM 60.8 °F - 59.0 °F 94% 30.01 in 6.2 mi ENE 1.2 mph - N/A   Scattered Clouds
8:30 AM 62.6 °F - 60.8 °F 94% 30.01 in 6.2 mi Variable 2.3 mph - N/A   Scattered Clouds
9:00 AM 66.2 °F - 64.4 °F 94% 30.01 in 6.2 mi Calm Calm - N/A   Partly Cloudy
9:30 AM 71.6 °F - 66.2 °F 83% 30.01 in 6.2 mi Calm Calm - N/A   Partly Cloudy
10:00 AM 75.2 °F - 68.0 °F 78% 30.01 in 6.2 mi Variable 1.2 mph - N/A   Partly Cloudy
10:30 AM 77.0 °F - 68.0 °F 74% 30.01 in 6.2 mi Calm Calm - N/A   Partly Cloudy
11:00 AM 78.8 °F - 68.0 °F 69% 30.04 in 6.2 mi North 1.2 mph - N/A   Partly Cloudy
11:30 AM 78.8 °F - 68.0 °F 69% 30.04 in - Calm Calm - N/A   Clear
12:00 PM 78.8 °F - 66.2 °F 65% 30.04 in - SW 4.6 mph - N/A   Clear
12:30 PM 80.6 °F 83.2 °F 68.0 °F 65% 30.01 in - WSW 9.2 mph - N/A   Clear
1:00 PM 80.6 °F 83.2 °F 68.0 °F 65% 30.04 in - WSW 12.7 mph - N/A   Clear
1:30 PM 78.8 °F - 68.0 °F 69% 30.04 in - WSW 11.5 mph - N/A   Clear
2:00 PM 78.8 °F - 68.0 °F 69% 30.01 in - WSW 10.4 mph - N/A   Clear
2:30 PM 80.6 °F 83.2 °F 68.0 °F 65% 30.01 in - WSW 9.2 mph - N/A   Clear
3:00 PM 78.8 °F - 68.0 °F 69% 30.01 in - WSW 10.4 mph - N/A   Clear
3:30 PM 78.8 °F - 68.0 °F 69% 30.01 in - WSW 9.2 mph - N/A   Clear
4:00 PM 80.6 °F 83.9 °F 69.8 °F 70% 29.98 in - WSW 10.4 mph - N/A   Clear
4:30 PM 78.8 °F - 69.8 °F 74% 29.98 in - West 12.7 mph - N/A   Clear
5:00 PM 78.8 °F - 69.8 °F 74% 29.98 in - WSW 15.0 mph - N/A   Clear
5:30 PM 78.8 °F - 68.0 °F 69% 29.98 in - WSW 11.5 mph - N/A   Clear
6:00 PM 78.8 °F - 68.0 °F 69% 29.98 in - WSW 10.4 mph - N/A   Clear
6:30 PM 78.8 °F - 68.0 °F 69% 29.95 in - SSE 4.6 mph - N/A   Clear
7:00 PM 77.0 °F - 68.0 °F 74% 29.95 in - ENE 2.3 mph - N/A   Clear
7:30 PM 75.2 °F - 68.0 °F 78% 29.95 in - NNW 3.5 mph - N/A   Clear
8:00 PM 75 °F - 68 °F 72% 29.96 in 19 mi NNW 2.3 mph - -  
8:00 PM 75.2 °F - 68.0 °F 78% 29.95 in - Variable 2.3 mph - N/A   Clear
8:30 PM 73.4 °F - 68.0 °F 83% 29.98 in - Calm Calm - N/A   Clear
9:00 PM 75.2 °F - 64.4 °F 69% 29.98 in - ESE 4.6 mph - N/A   Clear
9:30 PM 73.4 °F - 64.4 °F 73% 29.98 in - SSE 2.3 mph - N/A   Clear
10:00 PM 73.4 °F - 64.4 °F 73% 29.98 in - Calm Calm - N/A   Clear
10:30 PM 71.6 °F - 64.4 °F 78% 30.01 in - Calm Calm - N/A   Clear
11:00 PM 68.0 °F - 64.4 °F 88% 30.01 in - Variable 2.3 mph - N/A   Clear
11:30 PM 66.2 °F - 64.4 °F 94% 30.01 in - NE 3.5 mph - N/A   Clear